Location: ?????????
(54.7630°N, 39.4991°E)
Time: 07:16:28
(UTC+00:00)

Cosmos 2058 Rocket - Pass Details

Date: 14 April 2026
Orbit: 603 x 633 km, 82.5° (Epoch: 13 May)

Event Time Altitude Azimuth Distance (km) Brightness Sun altitude
Exits shadow 23:33:37 27° 156° (SSE) 1,204 4.2 -19.9°
Maximum altitude 23:35:43 50° 95° (E) 803 3.8 -19.7°
Drops below altitude 10° 23:40:01 10° 20° (NNE) 2,009 6.8 -19.4°
Sets 23:42:18 0° 15° (NNE) 2,915 7.8 -19.2°
